Worcester, MA

4:44 PM EST on November 20, 2019 (GMT -0500)
Worcester Regional

Weather History for KORH - October, 2019

Change the Weather History Date:

Friday, October 18, 2019

  Actual Average Record
Temperature  
Mean Temperature 46 °F 49 °F  
Max Temperature 53 °F 58 °F 85 °F (1908)
Min Temperature 39 °F 41 °F 25 °F (1939)
Degree Days  
Heating Degree Days 19 16  
Month to date heating degree days 216 235  
Since 1 July heating degree days 356 428  
Cooling Degree Days 0 0  
Month to date cooling degree days 0 0  
Year to date cooling degree days 545 468  
Moisture  
Dew Point 38 °F    
Average Humidity 72    
Maximum Humidity 83    
Minimum Humidity 59    
Precipitation  
Precipitation 0.00 in 0.15 in 3.65 in (1932)
Month to date precipitation 4.52 2.81  
Year to date precipitation 41.94 38.10  
Sea Level Pressure  
Sea Level Pressure 29.72 in    
Wind  
Wind Speed 11 mph ()    
Max Wind Speed 23 mph    
Max Gust Speed 30 mph    
Visibility 10.0 miles    
Events      
T = Trace of Precipitation, MM = Missing Value Source: Averaged Metar Reports

Daily Weather History Graph

Daily Weather History Graph

Search for Another Location

Airport or City:

Astronomy

Oct. 18, 2019 Rise Set
Actual Time 7:03 AM EDT 6:01 PM EDT
Civil Twilight 6:35 AM EDT 6:29 PM EDT
Nautical Twilight 6:02 AM EDT 7:02 PM EDT
Astronomical Twilight 5:30 AM EDT 7:34 PM EDT
Moon 9:11 PM EDT (10/18) 11:37 AM EDT (10/18)
Length of Visible Light 11h 54m
Length of Day
10h 57m
Waning Gibbous, 79% of the Moon is Illuminated
Oct 18
Waning Gibbous
Oct 21
Last Quarter
Oct 27
New
Nov 4
First Quarter
Nov 12
Full

Hourly Weather History & Observations

Time (EDT) Temp. Windchill Dew Point Humidity Pressure Visibility Wind Dir Wind Speed Gust Speed Precip Events Conditions
12:54 AM 46.0 °F 40.2 °F 37.9 °F 73% 29.47 in 10.0 mi West 12.7 mph 18.4 mph N/A   Mostly Cloudy
1:54 AM 46.0 °F 38.8 °F 39.0 °F 76% 29.48 in 10.0 mi West 18.4 mph 23.0 mph N/A   Mostly Cloudy
2:54 AM 45.0 °F 40.1 °F 39.9 °F 82% 29.52 in 10.0 mi West 9.2 mph - N/A   Mostly Cloudy
3:54 AM 46.0 °F 41.4 °F 39.9 °F 79% 29.53 in 10.0 mi West 9.2 mph - N/A   Mostly Cloudy
4:11 AM 46.0 °F 41.0 °F 39.9 °F 79% 29.52 in 10.0 mi West 10.4 mph - N/A   Overcast
4:54 AM 46.0 °F 41.9 °F 39.0 °F 76% 29.56 in 10.0 mi WNW 8.1 mph - N/A   Overcast
5:14 AM 46.0 °F 39.3 °F 39.0 °F 76% 29.55 in 10.0 mi West 16.1 mph 21.9 mph N/A   Overcast
5:54 AM 46.0 °F 39.9 °F 39.0 °F 76% 29.60 in 10.0 mi West 13.8 mph 21.9 mph N/A   Mostly Cloudy
6:54 AM 45.0 °F 39.3 °F 37.9 °F 76% 29.61 in 10.0 mi WNW 11.5 mph - N/A   Clear
7:54 AM 46.0 °F 39.3 °F 37.9 °F 73% 29.64 in 10.0 mi WNW 16.1 mph 23.0 mph N/A   Clear
8:54 AM 46.9 °F - 39.0 °F 74% 29.68 in 10.0 mi West 15.0 mph 24.2 mph N/A   Mostly Cloudy
9:54 AM 48.0 °F - 39.0 °F 71% 29.71 in 10.0 mi West 17.3 mph 23.0 mph N/A   Mostly Cloudy
10:24 AM 48.0 °F - 37.9 °F 68% 29.71 in 10.0 mi WNW 16.1 mph 24.2 mph N/A   Overcast
10:42 AM 48.0 °F - 39.0 °F 71% 29.71 in 10.0 mi WNW 16.1 mph 24.2 mph N/A   Overcast
10:54 AM 48.9 °F - 39.0 °F 69% 29.73 in 10.0 mi WNW 16.1 mph 24.2 mph N/A   Overcast
11:54 AM 50.0 °F - 37.9 °F 63% 29.74 in 10.0 mi NW 16.1 mph 29.9 mph N/A   Overcast
12:54 PM 52.0 °F - 39.0 °F 61% 29.75 in 10.0 mi West 15.0 mph 20.7 mph N/A   Overcast
1:54 PM 52.0 °F - 37.9 °F 59% 29.75 in 10.0 mi WNW 12.7 mph 21.9 mph N/A   Mostly Cloudy
2:54 PM 52.0 °F - 37.9 °F 59% 29.77 in 10.0 mi WNW 13.8 mph - N/A   Mostly Cloudy
3:54 PM 52.0 °F - 37.9 °F 59% 29.79 in 10.0 mi WNW 16.1 mph - N/A   Overcast
4:54 PM 48.9 °F - 37.9 °F 66% 29.81 in 10.0 mi WNW 16.1 mph 24.2 mph N/A   Mostly Cloudy
5:54 PM 48.0 °F - 37.9 °F 68% 29.84 in 10.0 mi WNW 8.1 mph - N/A   Overcast
6:54 PM 46.0 °F 41.4 °F 37.0 °F 71% 29.86 in 10.0 mi West 9.2 mph - N/A   Mostly Cloudy
7:54 PM 44.1 °F 38.1 °F 36.0 °F 73% 29.88 in 10.0 mi WNW 11.5 mph - N/A   Clear
8:54 PM 44.1 °F 40.1 °F 35.1 °F 71% 29.91 in 10.0 mi NNW 6.9 mph - N/A   Clear
9:54 PM 42.1 °F 39.2 °F 34.0 °F 73% 29.92 in 10.0 mi NNW 4.6 mph - N/A   Clear
10:54 PM 41.0 °F 35.2 °F 34.0 °F 76% 29.94 in 10.0 mi WNW 9.2 mph - N/A   Clear
11:12 PM 41.0 °F 34.3 °F 34.0 °F 76% 29.91 in 10.0 mi WNW 11.5 mph - N/A   Mostly Cloudy
11:25 PM 41.0 °F 33.9 °F 34.0 °F 76% 29.91 in 10.0 mi WNW 12.7 mph - N/A   Scattered Clouds
11:54 PM 41.0 °F 37.1 °F 34.0 °F 76% 29.94 in 10.0 mi WNW 5.8 mph - N/A   Clear